Location: Paddlesworth
(51.1000°N, 1.1333°E)
Time: 08:06:00
(UTC+00:00)

ERBS - Pass Details

Date: 11 May 2021
Orbit: 399 x 417 km, 57.0° (Epoch: 15 June)

Event Time Altitude Azimuth Distance (km) Brightness Sun altitude
Rises 21:35:48 0° 298° (WNW) 2,349 7.2 -14.6°
Reaches altitude 10° 21:37:57 10° 306° (NW) 1,489 6.2 -14.8°
Maximum altitude 21:41:06 39° 17° (NNE) 641 3.5 -15.1°
Enters shadow 21:43:44 14° 85° (E) 1,293 4.5 -15.3°
